Probability
21 22 23 21 16 12 8 6 5 4 4 4 3 2 2 2 2 1 0 0 0 0 0 0 0 0 0 0 0 0 0 0 0 0 0 0 0 0 0 0 0 0 0
25 26 26 23 19 14 9 6 5 4 4 4 2 1 1 2 2 2 1 1 0 0 0 0 0 0 0 0 0 0 0 0 0 0 0 0 0 0 0 0 0 0 0
29 27 26 26 24 17 11 7 6 6 6 5 3 1 1 1 1 2 2 2 1 1 0 0 0 0 0 0 0 0 0 0 0 0 0 0 0 0 0 0 0 0 0
27 25 26 29 27 20 13 9 7 6 6 6 4 3 2 1 0 1 2 2 2 2 1 1 1 0 0 0 0 0 0 0 0 0 0 0 0 0 0 0 0 0 0
26 27 29 30 29 23 17 13 9 7 6 6 4 3 3 2 0 0 1 1 1 2 2 2 2 1 1 1 0 0 0 0 0 0 0 0 0 0 0 0 0 0 0
30 30 31 30 28 26 22 17 13 10 8 6 5 4 3 2 1 1 1 1 0 1 1 2 2 2 2 2 1 1 1 0 0 0 0 0 0 0 0 0 0 0 1
33 30 28 28 29 28 25 20 16 13 11 9 7 6 5 3 3 2 2 1 0 0 0 1 1 1 2 2 2 2 2 1 0 0 0 0 0 0 0 0 1 2 2
32 26 23 25 27 26 24 21 17 14 12 10 10 7 4 3 3 3 2 1 0 0 0 0 0 0 1 1 2 3 3 2 1 0 0 0 0 0 1 2 3 3 3
29 23 19 19 21 21 21 19 16 12 10 8 7 5 2 1 2 3 2 1 0 0 0 0 0 0 0 0 1 1 2 2 1 0 0 0 1 1 2 3 3 2 1
27 23 17 14 15 16 16 16 14 10 6 4 2 1 0 0 1 1 1 1 0 0 0 0 0 0 0 0 0 0 1 2 2 1 0 0 1 2 3 3 2 1 0
26 23 16 12 12 13 13 12 10 6 3 1 0 0 0 0 0 0 0 0 0 1 0 0 0 0 0 0 0 0 0 1 1 1 1 1 2 3 3 3 2 1 0
27 22 16 13 12 11 10 9 8 5 2 1 0 0 0 1 1 1 0 0 0 0 0 0 0 0 0 0 0 0 0 0 1 1 2 2 3 3 3 3 3 1 0
26 23 18 15 14 10 8 8 8 6 4 2 0 0 1 1 1 1 0 0 0 0 0 0 0 0 0 0 0 0 0 0 1 2 2 2 3 3 3 3 3 2 1
25 23 21 19 17 13 9 7 7 5 3 2 1 1 1 1 1 0 0 0 0 0 0 0 0 0 0 0 0 0 0 0 1 1 2 2 2 3 3 3 3 3 2
24 23 23 22 20 17 11 7 5 4 3 2 1 1 1 1 0 0 0 0 1 1 0 0 0 0 0 0 0 0 0 0 0 1 1 1 1 2 3 3 3 3 3
25 25 23 22 21 18 13 8 6 4 3 1 1 0 0 0 0 0 0 0 1 1 1 1 1 0 0 0 0 0 0 0 0 0 0 0 0 1 3 3 3 3 3
27 25 23 22 21 17 12 8 6 4 2 0 0 0 0 0 0 0 0 0 0 1 1 1 1 1 0 0 0 0 0 0 0 0 0 0 0 1 2 2 2 3 3
24 23 22 20 18 14 9 6 5 2 0 0 0 0 0 0 0 0 0 0 0 0 0 1 1 1 0 0 0 0 0 0 0 0 0 0 0 0 1 1 2 3 3
20 20 18 16 13 9 7 4 2 0 0 0 0 0 0 0 0 0 0 0 0 0 0 0 1 1 0 0 0 0 0 0 0 1 1 0 0 0 0 1 2 3 3
17 17 14 12 9 6 4 2 0 0 0 0 0 0 0 0 0 0 0 0 0 0 0 0 0 0 0 0 0 0 0 0 0 1 2 1 1 0 0 0 1 3 3
16 15 13 9 7 5 2 0 0 0 0 0 0 0 0 0 0 0 0 0 0 0 0 0 0 0 0 0 0 0 0 0 0 1 2 2 2 1 1 0 1 2 3
15 15 12 8 5 3 1 0 0 0 0 0 0 0 0 0 0 0 0 0 0 0 0 0 0 0 0 0 0 0 0 0 0 0 1 2 2 2 2 1 0 1 2
12 11 10 7 5 2 0 0 0 0 0 0 0 0 0 0 0 0 0 0 0 0 0 0 0 0 0 0 0 0 0 0 0 0 0 1 1 1 1 1 0 0 1
8 7 6 6 5 3 2 0 0 0 0 0 0 0 0 0 0 0 0 0 0 0 0 0 0 0 0 0 0 0 0 0 0 0 0 0 0 0 0 0 0 0 0
6 4 3 4 5 5 4 2 0 0 0 0 0 0 0 0 0 0 0 0 0 0 0 0 0 0 0 0 0 0 0 0 0 0 0 0 0 0 0 0 0 0 0
5 4 3 4 4 5 5 3 1 0 0 0 0 0 0 0 0 0 0 0 0 0 0 0 0 0 0 0 0 0 0 0 0 0 0 0 0 0 0 0 0 0 0
Wind_Speed
10 12 14 14 14 14 13 13 13 13 13 13 13 13 14 14 14 14 13 14 14 14 14 14 14 14 14 14 14 14 13 13 13 12 13 13 14 14 14 14 13 9 14
14 14 14 14 14 14 14 13 13 13 13 13 13 13 14 14 13 13 13 13 14 14 14 14 14 14 14 14 13 13 12 11 10 10 11 11 13 14 14 14 13 9 13
15 15 14 14 14 14 14 14 14 13 13 13 13 13 13 13 13 13 13 13 14 14 14 14 14 14 13 13 12 12 11 10 9 9 8 5 8 13 13 13 12 12 12
15 14 13 14 15 15 14 14 14 13 13 13 13 13 13 13 13 13 13 14 14 14 13 13 13 13 13 12 12 11 10 9 8 8 6 6 6 11 12 12 11 11 11
14 13 14 15 15 15 15 15 14 13 13 12 12 13 13 13 13 13 13 13 13 13 13 13 13 13 12 12 11 10 10 9 8 7 6 6 6 10 11 11 11 11 11
14 13 13 14 15 15 15 14 14 13 13 13 13 13 13 13 13 13 13 13 13 13 13 13 12 12 11 10 10 9 9 9 7 5 6 5 5 9 11 10 10 10 10
14 13 13 14 15 15 15 14 14 14 13 13 13 13 13 13 13 13 13 13 13 13 12 12 11 11 11 10 10 9 9 8 4 5 5 5 6 10 10 10 10 10 10
14 13 13 15 15 15 15 14 14 13 14 14 14 14 14 14 13 13 12 12 12 12 12 11 11 10 10 10 9 9 9 8 6 6 5 5 8 10 10 10 10 10 10
13 13 11 10 12 13 14 14 14 14 14 14 14 14 13 13 13 12 12 12 11 11 11 10 10 9 9 9 8 8 9 8 5 4 5 4 8 9 9 10 9 9 9
11 11 10 10 9 9 10 13 13 13 14 14 13 12 12 12 12 12 11 11 11 10 10 9 8 8 8 7 6 7 7 7 4 4 3 4 8 9 9 10 10 9 9
10 9 9 9 9 9 8 11 11 12 12 11 10 10 8 5 6 7 9 10 10 9 8 7 7 6 6 5 5 6 5 2 4 3 3 6 8 9 9 10 10 10 9
9 9 8 8 8 8 8 7 5 5 5 5 4 5 3 4 5 6 8 9 8 8 6 5 4 3 2 1 3 4 2 3 3 3 3 7 8 9 9 10 10 10 9
9 8 7 8 7 7 5 5 3 3 3 4 4 4 4 4 4 4 3 3 3 3 2 2 1 1 2 2 2 2 3 2 2 2 3 7 8 9 9 10 10 10 10
9 8 7 7 7 6 5 4 4 3 3 3 4 4 4 3 3 2 2 2 1 1 1 1 1 2 2 2 3 3 3 2 2 1 2 6 7 8 9 10 10 10 11
9 8 7 7 7 6 5 4 4 4 4 4 3 4 4 3 3 3 2 2 2 1 1 2 2 3 3 3 3 3 3 2 2 2 1 5 6 7 9 10 10 11 11
9 9 8 8 7 6 5 4 4 4 4 4 3 4 4 3 3 3 3 2 2 2 2 2 2 2 2 2 3 3 2 2 2 1 1 2 5 6 8 10 10 11 11
10 9 8 8 7 7 6 5 5 4 4 4 3 4 4 4 4 3 3 2 2 2 2 2 2 2 2 2 3 3 2 2 2 2 2 1 2 4 7 9 11 11 12
9 9 9 8 7 7 6 5 4 4 5 4 3 3 4 4 4 3 3 2 2 2 2 2 2 2 2 2 2 2 2 2 2 1 1 1 1 2 4 8 10 11 12
9 10 9 8 8 7 6 5 5 5 4 4 3 3 3 4 4 3 3 2 2 2 2 2 2 2 2 2 2 2 2 2 1 1 1 1 1 1 2 5 9 10 12
8 9 10 9 8 7 6 5 4 5 4 4 3 3 4 3 4 3 2 2 2 2 2 2 2 2 2 2 3 2 2 2 1 0 1 2 1 2 2 3 3 6 11
8 9 9 9 8 7 5 5 4 4 3 3 3 4 4 3 3 3 2 2 2 2 1 2 2 2 2 2 2 2 3 3 1 1 1 1 2 3 3 3 3 3 4
7 8 9 9 8 7 5 4 4 4 3 3 3 4 3 3 3 3 3 2 2 2 2 2 2 1 1 2 1 2 3 4 3 2 2 2 3 3 3 4 4 4 4
7 7 7 9 8 8 7 5 5 4 3 3 3 3 3 3 3 3 3 2 2 2 1 1 1 1 1 2 2 1 1 2 4 3 2 2 3 3 4 4 4 4 5
6 6 6 8 8 8 8 7 8 5 4 3 3 3 3 3 3 3 3 2 2 2 2 1 1 1 1 1 2 1 0 1 1 4 3 2 4 5 4 5 5 5 5
6 6 6 7 7 7 7 7 7 5 4 4 4 4 3 3 3 3 3 2 2 1 1 1 1 1 1 0 1 1 2 2 1 2 6 6 5 4 4 5 4 4 5
6 6 6 7 7 7 7 7 7 7 6 6 5 4 3 2 2 3 2 2 2 1 1 1 1 0 0 0 1 1 1 1 2 2 4 6 6 5 5 4 4 4 4
Wind_Direction
122 128 130 127 123 118 114 112 110 107 104 102 99 97 95 92 90 88 85 84 82 80 79 77 74 72 70 68 67 66 64 63 62 62 61 59 57 56 54 50 46 46 48
126 129 129 127 123 119 115 111 108 106 104 103 100 98 97 93 91 88 86 85 83 82 80 77 75 72 70 68 67 65 64 61 61 60 61 59 58 56 54 50 48 46 45
125 128 128 125 123 119 116 113 109 106 104 102 100 98 97 95 92 89 86 86 84 82 79 78 76 73 71 68 65 63 60 57 54 49 53 60 58 55 52 49 46 45 43
124 127 129 125 123 120 117 115 111 108 105 103 101 100 98 96 93 90 87 85 84 82 81 79 76 73 70 67 63 59 54 47 42 42 52 54 52 51 49 45 43 42 39
121 124 124 125 123 121 118 114 112 110 108 106 104 101 100 97 94 91 88 85 84 82 79 77 75 72 69 66 61 55 47 37 33 44 53 54 51 48 47 44 40 38 35
120 119 123 124 123 120 117 114 112 111 108 105 104 101 99 97 94 91 88 86 84 83 80 76 73 70 67 64 59 51 37 27 28 50 52 52 49 45 44 42 38 35 31
119 120 125 122 121 120 118 116 114 111 107 104 101 99 98 96 92 90 88 86 84 82 79 76 73 69 63 59 54 43 29 19 42 55 53 52 47 45 40 38 36 33 30
120 122 125 120 119 118 117 115 114 111 108 105 102 99 96 94 93 90 89 87 85 82 79 76 72 68 63 56 48 35 21 20 40 54 54 50 46 43 38 34 30 28 25
121 124 127 125 119 116 115 113 111 109 106 104 101 98 95 94 92 91 89 88 85 82 78 74 70 68 61 54 44 28 18 25 34 42 51 44 42 38 32 28 24 20 17
122 127 130 130 126 120 114 111 110 109 108 105 102 98 94 92 90 89 87 85 84 80 77 74 70 67 60 50 33 16 15 23 38 42 42 39 38 33 28 24 20 15 11
126 130 132 131 127 123 122 118 113 110 110 109 106 106 102 96 92 87 86 85 82 77 74 74 71 66 58 39 17 10 20 38 46 45 37 37 33 28 22 19 14 10 7
137 132 129 126 126 128 128 124 122 121 123 116 116 113 98 89 90 92 88 87 82 77 71 68 68 60 37 20 2 5 27 39 47 46 36 34 28 23 17 13 10 6 3
135 127 124 124 126 126 125 127 120 117 117 111 110 106 100 94 97 92 92 87 85 81 65 51 45 25 34 23 21 24 24 38 46 41 33 32 25 18 13 10 8 5 2
132 128 124 124 122 119 120 122 119 114 107 102 104 105 100 95 91 95 93 93 86 70 56 44 41 30 29 27 34 32 25 31 49 51 37 31 23 14 8 5 4 1 358
138 134 131 128 125 121 119 123 117 111 107 103 96 94 95 94 93 87 79 72 67 58 44 35 39 33 28 24 27 27 21 29 42 49 40 30 18 9 2 359 357 355 353
144 140 135 131 128 125 119 115 111 108 106 101 95 95 97 97 94 89 77 65 56 43 35 43 44 34 19 19 20 16 8 14 25 35 55 29 14 5 359 354 352 350 348
144 140 138 134 129 125 118 115 112 111 108 103 101 98 96 95 93 90 84 69 57 45 38 42 40 37 26 17 10 5 360 0 0 18 24 23 5 1 355 350 347 345 344
144 142 140 138 132 126 119 116 112 110 107 106 102 98 96 97 96 87 82 66 53 48 42 41 44 34 18 10 353 340 339 340 338 2 18 14 3 350 344 345 341 339 339
147 144 140 136 134 127 121 114 110 108 106 105 101 97 97 95 95 93 91 79 58 52 41 27 34 31 14 360 336 324 318 313 306 349 354 348 346 343 332 337 337 333 332
145 142 141 139 137 133 124 114 105 103 105 102 100 100 100 95 93 88 89 84 72 63 43 38 39 25 15 336 325 325 303 291 287 353 325 324 323 329 331 325 322 323 328
142 143 145 144 143 139 136 133 125 123 115 107 108 109 103 98 95 93 88 81 74 73 62 59 53 30 5 348 354 327 307 294 284 337 315 317 317 318 320 316 310 308 314
147 149 148 149 149 146 143 136 129 128 123 121 116 112 113 108 103 102 99 94 81 76 55 48 54 42 2 7 19 347 334 328 323 304 294 298 304 314 312 316 310 309 306
151 154 157 156 153 150 142 132 126 109 105 108 122 123 124 118 110 106 106 100 88 90 83 53 57 65 5 336 23 71 35 298 312 298 291 300 322 317 309 307 306 309 309
160 155 156 154 152 151 149 148 147 147 150 155 150 142 135 126 123 114 109 104 96 85 82 59 51 38 62 330 339 16 91 256 318 311 305 310 317 312 310 315 313 305 308
154 152 155 151 150 151 152 153 152 150 146 135 133 138 138 134 131 123 113 105 102 95 89 71 54 31 45 360 331 327 326 329 289 283 299 310 313 301 305 306 304 307 311
144 145 150 153 153 154 154 158 159 154 148 143 145 150 152 142 137 132 125 117 115 107 104 102 101 57 16 347 327 334 325 314 306 299 293 303 307 304 303 297 301 307 313